FENGYUN 1C DEB

Satellite information

Favourite Embed

Satellite Type and Status

DEBRISIN ORBIT

Key statistics

Satellite FENGYUN 1C DEB at a glance.

Uptime

9496

Days in orbit

Revolutions

≈ 13.5

Per day

Orbit

SSO

Sun Synchronous Orbit

Inclination

100.0

Latest

Satellite identification and parameters

Extended collection of information and parameters for FENGYUN 1C DEB.

Object identification

Identified? True

Debris? True

Object name: FENGYUN 1C DEB

International designator: 1999-025DRA

Object number (NORAD): 35242

Object ID (CCSDS): 35242

Country: PEOPLES REPUBLIC OF CHINA (PRC)

Current information (Y/N): Y

RCS size: SMALL

Orbital parameters

Period: 106.534 minutes

Inclination: 99.971 deg

SMA: 7444.205 km

Apoapsis: 1291.626 km

Periapsis: 840.513 km

RAAN: 178.3719 deg

Eccentricy: 0.0302996

Argument of periapsis: 12.375 deg

Mean anomaly: 17.0761 deg

Mean motion: 13.51684419 rev/day

Mean motion (dot): 0.00001551 rev/day2

B* drag term: 0.0018327 1/REarth

Two-line elements (TLE)

Creation date: May 8, 2025, 3:01 a.m.

Reference frame: TEME

Reference center: EARTH

Epoch: May 7, 2025, 1:54 a.m. UTC

TLE line 0: 0 FENGYUN 1C DEB

TLE line 1: 1 35242U 99025DRA 25127.07932319 .00001551 00000-0 18327-2 0 9997

TLE line 2: 2 35242 99.9710 178.3719 0302996 12.3750 17.0761 13.51684419551595

Live tracking on map

Real-time ground track for satellite FENGYUN 1C DEB.

In-orbit conjunctions

A list of the most updated potential collisions computed for object FENGYUN 1C DEB.

Target Orbit TCA Probability of collision Miss distance Type
CZ-6A DEB SSO 2024-11-13 22:34:25 0.0008261867 140.0 (m) DEBRIS
COSMOS 252 DEB LEO 2024-10-23 04:24:07 0.0001324165 179.0 (m) DEBRIS
DELTA 1 R/B(1) MEO 2024-07-11 12:23:33 0.0004407212 187.0 (m) ROCKET BODY

Associated space launch

Chinese polar orbiting meteorological satellite

FENGYUN 1C DEB was lifted into orbit during the mission ‘Long March 4B | Feng Yun 1C’, on board a Long March 4B space rocket.

The launch took place on May 10, 1999, 1:33 a.m. from Launch Complex 7.

For more information about the launch, click the button.

Launch to space Long March 4B | Feng Yun 1C
Long March 4B | Feng Yun 1C

Agency: N/A

Status: Launch Successful

Launch date: May 10, 1999, 1:33 a.m. UTC

Rocket: Long March 4B

Launch pad: Launch Complex 7

Location: Taiyuan Satellite Launch Center, People's Republic of China

...

Latest news about this satellite

There are no fresh news available about this satellite. Check back as we update our databases every day.


Newsletter sign-up

Weekly statistics, charts and insights to help you stay on top of the space industry.